TimeCST,TemperatureF,Dew PointF,Humidity,Sea Level PressureIn,VisibilityMPH,Wind Direction,Wind SpeedMPH,Gust SpeedMPH,PrecipitationIn,Events,Conditions,WindDirDegrees,DateUTC
12:53 AM,19.0,10.0,68,30.06,10.0,WSW,8.1,-,N/A,,Clear,240,2013-01-16 06:53:00
1:53 AM,19.9,12.9,74,30.06,10.0,WSW,8.1,-,N/A,,Overcast,240,2013-01-16 07:53:00
2:53 AM,23.0,17.1,78,30.04,10.0,WSW,8.1,-,N/A,,Overcast,240,2013-01-16 08:53:00
3:53 AM,23.0,17.1,78,30.02,10.0,WSW,8.1,-,N/A,,Mostly Cloudy,240,2013-01-16 09:53:00
4:53 AM,27.0,21.0,78,30.01,10.0,West,11.5,-,N/A,,Overcast,260,2013-01-16 10:53:00
5:53 AM,28.9,23.0,78,30.01,10.0,WSW,10.4,-,N/A,,Overcast,250,2013-01-16 11:53:00
6:53 AM,30.0,25.0,82,30.02,10.0,West,10.4,-,N/A,,Overcast,270,2013-01-16 12:53:00
7:53 AM,30.0,25.0,82,30.06,10.0,WNW,12.7,-,N/A,,Scattered Clouds,290,2013-01-16 13:53:00
8:53 AM,30.9,26.1,82,30.08,10.0,WNW,12.7,-,N/A,,Clear,290,2013-01-16 14:53:00
9:53 AM,34.0,27.0,75,30.08,10.0,West,9.2,-,N/A,,Clear,280,2013-01-16 15:53:00
10:53 AM,37.0,28.9,73,30.08,10.0,WNW,10.4,-,N/A,,Clear,290,2013-01-16 16:53:00
11:53 AM,42.1,30.0,62,30.07,10.0,West,6.9,-,N/A,,Clear,280,2013-01-16 17:53:00
12:53 PM,43.0,30.9,62,30.06,10.0,WNW,9.2,-,N/A,,Clear,290,2013-01-16 18:53:00
1:53 PM,44.6,30.2,57,30.00,10.0,West,6.9,-,N/A,,Clear,280,2013-01-16 19:53:00
2:53 PM,46.0,30.0,54,30.06,10.0,West,8.1,-,N/A,,Clear,270,2013-01-16 20:53:00
3:53 PM,46.0,28.9,51,30.08,10.0,WNW,5.8,-,N/A,,Clear,300,2013-01-16 21:53:00
4:53 PM,41.0,30.0,65,30.11,10.0,NW,10.4,-,N/A,,Clear,310,2013-01-16 22:53:00
5:53 PM,37.9,28.9,70,30.14,10.0,NW,9.2,-,N/A,,Clear,310,2013-01-16 23:53:00
6:53 PM,35.1,28.0,76,30.18,10.0,WNW,9.2,-,N/A,,Clear,300,2013-01-17 00:53:00
7:53 PM,35.1,28.0,76,30.21,10.0,WNW,9.2,-,N/A,,Clear,300,2013-01-17 01:53:00
8:53 PM,35.1,27.0,72,30.25,10.0,NW,10.4,-,N/A,,Clear,320,2013-01-17 02:53:00
9:53 PM,33.1,27.0,78,30.27,10.0,WNW,9.2,-,N/A,,Clear,300,2013-01-17 03:53:00
10:53 PM,30.0,25.0,82,30.29,10.0,WNW,9.2,-,N/A,,Clear,300,2013-01-17 04:53:00
11:53 PM,28.9,25.0,85,30.32,10.0,WNW,6.9,-,N/A,,Clear,300,2013-01-17 05:53:00